FENGYUN 1C DEB, 31062

Orbit data source: Space-Track

FENGYUN 1C DEB, 31062 is space debris in SSO originally from a launch on Mon, 10 May 1999 UTC launched from the Taiyaun Space Center, China (TSC). Fengyun 1C debris stems from the Chinese weather satellite Fengyun-1C, which was intentionally destroyed by a Chinese anti-satellite missile in 2007. This event dramatically increased the amount of space debris, with thousands of trackable fragments posing hazards to satellites and human spaceflight. The Fengyun 1C debris cloud has become a focal point in discussions about space sustainability and the need for international regulations to prevent the creation of new debris.

Loading next visibility...
Identifier
31062, 1999-025BFG
Orbit
SSO
Country
Flag of CNCN / PRC
Related business
Manufacturer
Unknown
Mission
Spacecraft
Bus & Motor
Unknown
Mass
Unknown
Launch date (UTC)
1999-05-10 (27 years ago)
Launch vehicle
Unknown
Launch site
Taiyaun Space Center, China (TSC)
Object type
Payload
Rocket body
Debris
Shape & HBR
Unknown shape, 0.1 m
Radar Cross Section
Medium (>0.1 m² and <1 m²)

Expand to show TLE details & history
Last TLE update: 1 day ago

TLE from 1 day ago
0 FENGYUN 1C DEB
1 31062U 99025BFG 26235.32076569  .00000063  00000-0  96994-4 0  9993
2 31062  99.0130  48.9077 0171608   5.2167 113.5201 13.75803187977206
Epoch: 2026-08-23T07:41Z
TLE epoch observation values (Epoch: 2026-08-23T07:41:54.155Z)
Latitude
58.39211°
Longitude
156.67138°
Altitude
1,040.807 km
Speed
7.311 km/s
True Right ascension
16h 15m 03s
True Declination
58° 14' 39"
Sunlit
Object was in daylight at epoch
Visualization orbit readout
Latitude
Unknown
Longitude
Unknown
Altitude
Unknown
Speed
Unknown
Apparent Right ascension
Unknown
Apparent Declination
Unknown
Sunlit
N/A
Visualization observer readout
Local Sidereal Time
01:55:19
Azimuth
Unknown
Elevation
Unknown
Doppler factor
Unknown
Orbital elements
Apogee altitude
1,102.245 km
Perigee altitude
849.838 km
Semi-major axis
7,354.178 km
Eccentricity
0.01716
Inclination
99.013°
RAAN
48.9077°
Arg. of periapsis
5.2167°
True anomaly
115.30761°
Mean anomaly
113.5201°
Eccentric anomaly
114.41541°
Mean motion
3.44145 °/min
Orbital period
104.61 mins
BSTAR
0.000096994
Loading maneuver chart data...
Computing Atmospheric mass density...

Documentation

Showing up to 5 results
|